Zurück zum Katalog

NIMBUS 2 DEB

AktivSSO
NORAD 42435·DEBRIS·🇺🇸 United States

Gestartet May 15, 1966 von Vandenberg Space Force Base

Loading…

Nächste Überflüge (nächste 24 Stunden)

TLE

AktuellSource: Space-Track

Epoche: Sep 13, 2026, 09:50 UTC

1 42435U 66040BN  26256.40974061  .00001232  00000-0  21910-2 0  9999
2 42435 100.2152  63.1529 0050469 321.1928  38.5581 13.44030849487451

Verfolge NIMBUS 2 DEB in Echtzeit mit AllMySat

Download on the App Store